When you browse on this site, cookies collect data to enhance your experience and personalize the content and advertising you see.
Visit our Privacy Policy to learn more. By continuing to use the site, you agree to this use of cookies and data.
  • In Romania
  • List of Countries
  • For 7 days
  • Water Temperature
  • Satellite Maps
  • Weather Map
  • Weather Widgets
  • user-avatar
    Login

    Hourly Weather Morozha

    Today, 23 March, Saturday

    Time Temperature Precipitation Wind Pressure Humidity
    00:00 -3°C° 0 mm 6 mps 747 mmHg 80%
    01:00 -2°C° 0 mm 5 mps 748 mmHg 81%
    02:00 -2°C° 0 mm 5 mps 748 mmHg 82%
    03:00 -2°C° 0 mm 5 mps 748 mmHg 83%
    04:00 -2°C° 0 mm 4 mps 749 mmHg 85%
    05:00 -2°C° 0 mm 4 mps 749 mmHg 86%
    06:00 -2°C° 0 mm 4 mps 750 mmHg 86%
    07:00 -1°C° 0 mm 3 mps 750 mmHg 86%
    08:00 -1°C° 0 mm 3 mps 750 mmHg 85%
    09:00 +1°C° 0 mm 2 mps 750 mmHg 81%
    10:00 +2°C° 0 mm 2 mps 750 mmHg 77%
    11:00 +5°C° 0 mm 1 mps 750 mmHg 74%
    12:00 +5°C° 0 mm 1 mps 750 mmHg 71%
    13:00 +6°C° 0 mm 1 mps 750 mmHg 68%
    14:00 +6°C° 0 mm 1 mps 749 mmHg 66%
    15:00 +6°C° 0 mm 1 mps 749 mmHg 68%
    16:00 +6°C° 0 mm 1 mps 748 mmHg 71%
    17:00 +4°C° 0 mm 2 mps 748 mmHg 73%
    18:00 +4°C° 0 mm 2 mps 748 mmHg 76%
    19:00 +3°C° 0 mm 2 mps 747 mmHg 79%
    20:00 +1°C° 0 mm 3 mps 747 mmHg 82%
    21:00 +1°C° 0.1 mm 3 mps 746 mmHg 79%
    22:00 +1°C° 0.1 mm 3 mps 745 mmHg 76%
    23:00 0°C° 0.1 mm 4 mps 744 mmHg 73%

    Tomorrow, 24 March, Sunday

    Time Temperature Precipitation Wind Pressure Humidity
    00:00 +1°C° 0.7 mm 3 mps 744 mmHg 74%
    01:00 +1°C° 0.7 mm 3 mps 743 mmHg 75%
    02:00 +1°C° 0.7 mm 3 mps 743 mmHg 77%
    03:00 +1°C° 0.1 mm 3 mps 743 mmHg 82%
    04:00 +1°C° 0.1 mm 3 mps 742 mmHg 87%
    05:00 +2°C° 0.1 mm 2 mps 742 mmHg 93%
    06:00 +1°C° 0 mm 3 mps 742 mmHg 90%
    07:00 +1°C° 0 mm 3 mps 742 mmHg 88%
    08:00 0°C° 0 mm 4 mps 742 mmHg 85%
    09:00 +1°C° 0 mm 4 mps 742 mmHg 77%
    10:00 +2°C° 0 mm 5 mps 742 mmHg 68%
    11:00 +3°C° 0 mm 5 mps 742 mmHg 60%
    12:00 +3°C° 0 mm 5 mps 742 mmHg 57%
    13:00 +5°C° 0 mm 5 mps 742 mmHg 54%
    14:00 +5°C° 0 mm 5 mps 742 mmHg 51%
    15:00 +4°C° 0 mm 4 mps 741 mmHg 54%
    16:00 +4°C° 0 mm 4 mps 741 mmHg 56%
    17:00 +3°C° 0 mm 3 mps 741 mmHg 59%
    18:00 +2°C° 0 mm 3 mps 741 mmHg 63%
    19:00 +2°C° 0 mm 2 mps 741 mmHg 68%
    20:00 -1°C° 0 mm 2 mps 741 mmHg 73%
    21:00 -1°C° 0 mm 2 mps 741 mmHg 73%
    22:00 -1°C° 0 mm 2 mps 741 mmHg 74%
    23:00 -1°C° 0 mm 2 mps 741 mmHg 74%

    Day after tomorrow, 25 March, Monday

    Time Temperature Precipitation Wind Pressure Humidity
    00:00 -2°C° 0 mm 3 mps 740 mmHg 74%
    01:00 -2°C° 0 mm 3 mps 740 mmHg 74%
    02:00 -2°C° 0 mm 3 mps 740 mmHg 74%
    03:00 -2°C° 0 mm 2 mps 740 mmHg 76%
    04:00 -2°C° 0 mm 2 mps 740 mmHg 77%
    05:00 -3°C° 0 mm 2 mps 739 mmHg 79%
    06:00 -2°C° 0 mm 2 mps 739 mmHg 76%
    07:00 -1°C° 0 mm 3 mps 739 mmHg 73%
    08:00 0°C° 0 mm 3 mps 739 mmHg 70%
    09:00 +1°C° 0 mm 3 mps 739 mmHg 62%
    10:00 +3°C° 0 mm 3 mps 739 mmHg 54%
    11:00 +4°C° 0 mm 3 mps 739 mmHg 46%
    12:00 +5°C° 0 mm 3 mps 738 mmHg 45%
    13:00 +5°C° 0 mm 3 mps 738 mmHg 44%
    14:00 +5°C° 0 mm 3 mps 738 mmHg 43%
    15:00 +6°C° 0 mm 2 mps 738 mmHg 49%
    16:00 +5°C° 0 mm 2 mps 738 mmHg 55%
    17:00 +5°C° 0 mm 1 mps 738 mmHg 61%
    18:00 +4°C° 0 mm 1 mps 738 mmHg 66%
    19:00 +1°C° 0 mm 2 mps 738 mmHg 72%
    20:00 -1°C° 0 mm 2 mps 738 mmHg 77%
    21:00 -1°C° 0 mm 2 mps 738 mmHg 78%
    22:00 -2°C° 0 mm 2 mps 738 mmHg 80%
    23:00 0°C° 0 mm 1 mps 738 mmHg 81%

    26 March, Tuesday

    Time Temperature Precipitation Wind Pressure Humidity
    00:00 0°C° 0.1 mm 1 mps 739 mmHg 83%
    01:00 0°C° 0.1 mm 1 mps 739 mmHg 84%
    02:00 0°C° 0.1 mm 1 mps 739 mmHg 86%
    03:00 0°C° 0 mm 1 mps 739 mmHg 89%
    04:00 0°C° 0 mm 1 mps 739 mmHg 92%
    05:00 0°C° 0 mm 1 mps 739 mmHg 95%
    06:00 -2°C° 0.1 mm 2 mps 739 mmHg 92%
    07:00 -1°C° 0.1 mm 2 mps 739 mmHg 90%
    08:00 0°C° 0.1 mm 3 mps 739 mmHg 87%
    09:00 0°C° 0.3 mm 3 mps 739 mmHg 83%
    10:00 -1°C° 0.3 mm 4 mps 739 mmHg 78%
    11:00 -1°C° 0.3 mm 4 mps 739 mmHg 74%
    12:00 -1°C° 0.1 mm 4 mps 740 mmHg 68%
    13:00 0°C° 0.1 mm 4 mps 740 mmHg 62%
    14:00 0°C° 0.1 mm 4 mps 740 mmHg 57%
    15:00 +1°C° 0.1 mm 3 mps 739 mmHg 57%
    16:00 +1°C° 0.1 mm 3 mps 739 mmHg 57%
    17:00 +2°C° 0.1 mm 2 mps 739 mmHg 57%
    18:00 +1°C° 0.2 mm 2 mps 739 mmHg 68%
    19:00 -1°C° 0.2 mm 3 mps 739 mmHg 78%
    20:00 -2°C° 0.2 mm 3 mps 739 mmHg 89%
    21:00 -4°C° 0.4 mm 3 mps 739 mmHg 87%
    22:00 -4°C° 0.4 mm 3 mps 740 mmHg 85%
    23:00 -5°C° 0.4 mm 4 mps 740 mmHg 83%

    27 March, Wednesday

    Time Temperature Precipitation Wind Pressure Humidity
    00:00 -5°C° 0.1 mm 3 mps 740 mmHg 86%
    01:00 -5°C° 0.1 mm 3 mps 741 mmHg 88%
    02:00 -5°C° 0.1 mm 3 mps 742 mmHg 91%
    03:00 -5°C° 0 mm 3 mps 742 mmHg 92%
    04:00 -6°C° 0 mm 3 mps 743 mmHg 93%
    05:00 -5°C° 0 mm 2 mps 743 mmHg 94%
    06:00 -6°C° 0 mm 3 mps 744 mmHg 90%
    07:00 -5°C° 0 mm 3 mps 745 mmHg 86%
    08:00 -4°C° 0 mm 3 mps 745 mmHg 81%
    09:00 -2°C° 0 mm 3 mps 745 mmHg 74%
    10:00 -1°C° 0 mm 3 mps 746 mmHg 67%
    11:00 0°C° 0 mm 4 mps 746 mmHg 59%
    12:00 0°C° 0.1 mm 4 mps 746 mmHg 59%
    13:00 0°C° 0.1 mm 4 mps 746 mmHg 60%
    14:00 0°C° 0.1 mm 5 mps 747 mmHg 60%
    15:00 0°C° 0 mm 4 mps 747 mmHg 61%
    16:00 -1°C° 0 mm 4 mps 747 mmHg 62%
    17:00 -1°C° 0 mm 4 mps 748 mmHg 63%
    18:00 -1°C° 0 mm 3 mps 748 mmHg 69%
    19:00 -4°C° 0 mm 3 mps 749 mmHg 75%
    20:00 -4°C° 0 mm 2 mps 750 mmHg 81%
    21:00 -4°C° 0 mm 2 mps 750 mmHg 82%
    22:00 -5°C° 0 mm 2 mps 751 mmHg 83%
    23:00 -5°C° 0 mm 2 mps 751 mmHg 84%

    28 March, Thursday

    Time Temperature Precipitation Wind Pressure Humidity
    00:00 -5°C° 0 mm 2 mps 751 mmHg 84%
    01:00 -4°C° 0 mm 1 mps 752 mmHg 83%
    02:00 -4°C° 0 mm 1 mps 752 mmHg 83%
    03:00 -4°C° 0 mm 1 mps 753 mmHg 81%
    04:00 -4°C° 0 mm 1 mps 753 mmHg 79%
    05:00 -6°C° 0 mm 1 mps 753 mmHg 77%
    06:00 -4°C° 0 mm 1 mps 754 mmHg 70%
    07:00 -5°C° 0 mm 2 mps 754 mmHg 62%
    08:00 -4°C° 0 mm 2 mps 755 mmHg 54%
    09:00 -2°C° 0 mm 2 mps 755 mmHg 50%
    10:00 -1°C° 0 mm 2 mps 755 mmHg 46%
    11:00 +1°C° 0 mm 2 mps 756 mmHg 42%
    12:00 +2°C° 0 mm 2 mps 755 mmHg 42%
    13:00 +2°C° 0 mm 3 mps 755 mmHg 42%
    14:00 +3°C° 0 mm 3 mps 755 mmHg 42%
    15:00 +4°C° 0 mm 2 mps 755 mmHg 47%
    16:00 +3°C° 0 mm 2 mps 754 mmHg 52%
    17:00 +3°C° 0 mm 2 mps 754 mmHg 56%
    18:00 +2°C° 0 mm 2 mps 754 mmHg 63%
    19:00 +1°C° 0 mm 2 mps 754 mmHg 70%
    20:00 -1°C° 0 mm 2 mps 754 mmHg 77%
    21:00 -1°C° 0 mm 2 mps 754 mmHg 82%
    22:00 -1°C° 0 mm 3 mps 754 mmHg 86%
    23:00 -1°C° 0 mm 3 mps 754 mmHg 91%
    Show more